Broken Bow, NE

7:44 AM CST on November 12, 2019 (GMT -0600)
Broken Bow Municipal

Weather History for KBBW - October, 2019

Change the Weather History Date:

Friday, October 18, 2019

  Actual Average Record
Temperature  
Mean Temperature 56 °F 49 °F  
Max Temperature 71 °F 62 °F 86 °F (1914)
Min Temperature 41 °F 35 °F 15 °F (1948)
Degree Days  
Heating Degree Days 9 16  
Month to date heating degree days 313 241  
Cooling Degree Days 0 0  
Month to date cooling degree days 0 2  
Year to date cooling degree days 839 764  
Growing Degree Days 8 (Base 50)    
Moisture  
Dew Point 38 °F    
Average Humidity 52    
Maximum Humidity 71    
Minimum Humidity 33    
Precipitation  
Precipitation T in 0.06 in 1.92 in (1904)
Sea Level Pressure  
Sea Level Pressure 29.53 in    
Wind  
Wind Speed 9 mph (West)    
Max Wind Speed 22 mph    
Max Gust Speed 30 mph    
Visibility 10 miles    
Events      
T = Trace of Precipitation, MM = Missing Value Source: NWS Daily Summary

Daily Weather History Graph

Daily Weather History Graph

Search for Another Location

Airport or City:

Astronomy

Oct. 18, 2019 Rise Set
Actual Time 7:53 AM CDT 6:53 PM CDT
Civil Twilight 7:25 AM CDT 7:21 PM CDT
Nautical Twilight 6:53 AM CDT 7:53 PM CDT
Astronomical Twilight 6:21 AM CDT 8:25 PM CDT
Moon 10:08 PM CDT (10/18) 12:30 PM CDT (10/18)
Length of Visible Light 11h 55m
Length of Day
10h 59m
Waning Gibbous, 78% of the Moon is Illuminated
Oct 18
Waning Gibbous
Oct 21
Last Quarter
Oct 27
New
Nov 4
First Quarter
Nov 12
Full

Hourly Weather History & Observations

Time (CDT) Temp. Windchill Dew Point Humidity Pressure Visibility Wind Dir Wind Speed Gust Speed Precip Events Conditions
12:53 AM 54.0 °F - 39.9 °F 59% 29.55 in 10.0 mi SE 6.9 mph - N/A   Clear
1:53 AM 54.0 °F - 39.9 °F 59% 29.53 in 10.0 mi SE 6.9 mph - N/A   Clear
2:53 AM 54.0 °F - 39.0 °F 57% 29.49 in 10.0 mi SSE 9.2 mph - N/A   Clear
3:53 AM 54.0 °F - 37.9 °F 55% 29.46 in 10.0 mi SSE 9.2 mph - N/A   Clear
4:53 AM 51.1 °F - 37.9 °F 61% 29.44 in 10.0 mi SE 6.9 mph - N/A   Clear
5:53 AM 50.0 °F - 37.0 °F 61% 29.43 in 10.0 mi SE 9.2 mph - N/A   Clear
6:53 AM 48.9 °F - 36.0 °F 61% 29.42 in 10.0 mi SSE 10.4 mph - N/A   Clear
7:53 AM 46.0 °F 42.5 °F 35.1 °F 66% 29.42 in 10.0 mi South 6.9 mph - N/A   Clear
8:53 AM 46.9 °F - 35.1 °F 63% 29.43 in 10.0 mi Calm Calm - N/A   Clear
9:53 AM 54.0 °F - 37.9 °F 55% 29.42 in 10.0 mi SSE 5.8 mph - N/A   Clear
10:53 AM 59.0 °F - 39.0 °F 48% 29.43 in 10.0 mi South 6.9 mph - N/A   Clear
11:53 AM 64.9 °F - 39.0 °F 39% 29.43 in 10.0 mi WSW 6.9 mph - N/A   Clear
12:53 PM 66.9 °F - 39.0 °F 36% 29.46 in 10.0 mi WNW 16.1 mph 24.2 mph N/A   Clear
1:53 PM 68.0 °F - 39.9 °F 36% 29.47 in 10.0 mi NW 19.6 mph 28.8 mph N/A   Clear
2:53 PM 70.0 °F - 39.9 °F 33% 29.48 in 10.0 mi NW 15.0 mph 29.9 mph N/A   Clear
3:53 PM 70.0 °F - 39.0 °F 32% 29.51 in 10.0 mi NNW 17.3 mph 28.8 mph N/A   Clear
4:53 PM 66.9 °F - 39.0 °F 36% 29.55 in 10.0 mi NNW 16.1 mph 27.6 mph N/A   Clear
5:53 PM 63.0 °F - 37.0 °F 38% 29.60 in 10.0 mi NNW 17.3 mph 27.6 mph N/A   Clear
6:53 PM 60.1 °F - 37.9 °F 44% 29.65 in 10.0 mi NNW 9.2 mph - N/A   Clear
7:53 PM 55.9 °F - 37.9 °F 51% 29.69 in 10.0 mi NNW 9.2 mph - N/A   Clear
8:53 PM 55.9 °F - 37.0 °F 49% 29.73 in 10.0 mi NW 9.2 mph - N/A   Overcast
9:53 PM 52.0 °F - 41.0 °F 66% 29.71 in 10.0 mi North 6.9 mph - 0.00 in   Overcast
10:53 PM 53.1 °F - 39.9 °F 61% 29.73 in 10.0 mi NNW 6.9 mph - N/A   Overcast
11:53 PM 48.9 °F - 39.9 °F 71% 29.75 in 10.0 mi NW 5.8 mph - N/A   Partly Cloudy